sat.trackr.live / text

‹ back to catalog

STARLINK-32289

NORAD 60737 · 2024-152T

PAYLOAD ACTIVE UNKNOWN

§ Identity

Operator
Country
US
Launch date
2024-08-28
Launch site
AFETR
Launch vehicle
Mass (kg)
RCS (m²)

Purposes: comms

External: N2YO · Heavens-Above · Gunter

§ Orbital elements

Epoch: 2026-05-25T02:00:39.829248Z

Period
94.11 min
Inclination
53.1604°
Eccentricity
0.0001386
Mean motion
15.30197878 rev/d
Perigee alt
474.3 km
Apogee alt
476.2 km
Semi-major
6,853.4 km
B*
5.1500e-5
RAAN
273.8298°
Arg perigee
115.0021°
Mean anomaly
245.1124°
Rev number
9,854

§ Raw data

STARLINK-322891 60737U 24152T   26145.08379432  .00001166  00000+0  51500-4 0  99992 60737  53.1604 273.8298 0001386 115.0021 245.1124 15.30197878 98545

JSON: /api/v1/satellites/60737 · /tle

For live sub-satellite position, see the globe view (requires WebGL).

§ Visibility from observer

Set your observer location to see the next 7 days of passes ≥ 10°. The values pass through the URL so the page stays shareable.

No JS? Fill the form by hand. The geolocation button needs JavaScript.